• Em Portugal
  • Lista de países
  • Para 7 dias
  • Temperatura da água
  • Mapas de satélite
  • Mapa do tempo
  • Widgets de tempo
  • user-avatar
    Iniciar Sessão

    Previsão horária em Cobán

    Hoje, 24 Setembro, Segunda-feira

    Tempo Temperatura Precipitação Vento Pressão Humidade
    00:00 +16°C° 0 mm 0 m/s 654 mmHg 96%
    01:00 +16°C° 0.1 mm 0 m/s 653 mmHg 96%
    02:00 +16°C° 0.1 mm 0 m/s 653 mmHg 96%
    03:00 +16°C° 0.1 mm 0 m/s 653 mmHg 96%
    04:00 +16°C° 0 mm 0 m/s 653 mmHg 96%
    05:00 +15°C° 0 mm 0 m/s 653 mmHg 96%
    06:00 +16°C° 0 mm 0 m/s 653 mmHg 97%
    07:00 +18°C° 0.1 mm 0 m/s 654 mmHg 91%
    08:00 +19°C° 0.1 mm 0 m/s 654 mmHg 84%
    09:00 +21°C° 0.1 mm 0 m/s 655 mmHg 78%
    10:00 +23°C° 0.5 mm 1 m/s 655 mmHg 78%
    11:00 +24°C° 0.5 mm 1 m/s 654 mmHg 78%
    12:00 +24°C° 0.5 mm 1 m/s 654 mmHg 78%
    13:00 +24°C° 0.9 mm 1 m/s 654 mmHg 80%
    14:00 +24°C° 0.9 mm 1 m/s 653 mmHg 82%
    15:00 +23°C° 0.9 mm 1 m/s 653 mmHg 85%
    16:00 +22°C° 0.3 mm 1 m/s 653 mmHg 88%
    17:00 +21°C° 0.3 mm 1 m/s 653 mmHg 91%
    18:00 +18°C° 0.3 mm 0 m/s 653 mmHg 94%
    19:00 +17°C° 0.2 mm 0 m/s 653 mmHg 95%
    20:00 +17°C° 0.2 mm 0 m/s 654 mmHg 95%
    21:00 +17°C° 0.2 mm 0 m/s 654 mmHg 96%
    22:00 +16°C° 0.1 mm 0 m/s 654 mmHg 96%
    23:00 +16°C° 0.1 mm 0 m/s 654 mmHg 96%

    Amanhã, 25 Setembro, Terça-feira

    Tempo Temperatura Precipitação Vento Pressão Humidade
    00:00 +16°C° 0.1 mm 0 m/s 654 mmHg 96%
    01:00 +16°C° 0 mm 0 m/s 654 mmHg 96%
    02:00 +15°C° 0 mm 0 m/s 653 mmHg 96%
    03:00 +15°C° 0 mm 0 m/s 653 mmHg 96%
    04:00 +15°C° 0 mm 0 m/s 653 mmHg 96%
    05:00 +15°C° 0 mm 0 m/s 653 mmHg 96%
    06:00 +15°C° 0 mm 0 m/s 653 mmHg 95%
    07:00 +17°C° 0 mm 0 m/s 654 mmHg 88%
    08:00 +19°C° 0 mm 0 m/s 655 mmHg 80%
    09:00 +21°C° 0 mm 0 m/s 656 mmHg 73%
    10:00 +24°C° 0 mm 1 m/s 656 mmHg 68%
    11:00 +25°C° 0 mm 1 m/s 656 mmHg 62%
    12:00 +27°C° 0 mm 1 m/s 656 mmHg 57%
    13:00 +27°C° 0.1 mm 1 m/s 655 mmHg 57%
    14:00 +27°C° 0.1 mm 1 m/s 654 mmHg 57%
    15:00 +27°C° 0.1 mm 2 m/s 654 mmHg 57%
    16:00 +25°C° 0.2 mm 1 m/s 653 mmHg 67%
    17:00 +23°C° 0.2 mm 1 m/s 653 mmHg 76%
    18:00 +20°C° 0.2 mm 1 m/s 653 mmHg 85%
    19:00 +20°C° 0.2 mm 1 m/s 653 mmHg 88%
    20:00 +19°C° 0.2 mm 1 m/s 654 mmHg 92%
    21:00 +17°C° 0.2 mm 0 m/s 654 mmHg 95%
    22:00 +16°C° 0 mm 0 m/s 654 mmHg 96%
    23:00 +16°C° 0 mm 0 m/s 654 mmHg 96%

    Depois de amanhã, 26 Setembro, Quarta-feira

    Tempo Temperatura Precipitação Vento Pressão Humidade
    00:00 +16°C° 0 mm 0 m/s 654 mmHg 97%
    01:00 +15°C° 0 mm 0 m/s 653 mmHg 97%
    02:00 +15°C° 0 mm 0 m/s 653 mmHg 96%
    03:00 +15°C° 0 mm 0 m/s 653 mmHg 96%
    04:00 +15°C° 0 mm 0 m/s 653 mmHg 96%
    05:00 +15°C° 0 mm 0 m/s 653 mmHg 95%
    06:00 +15°C° 0 mm 0 m/s 653 mmHg 95%
    07:00 +17°C° 0.1 mm 0 m/s 654 mmHg 88%
    08:00 +18°C° 0.1 mm 0 m/s 655 mmHg 81%
    09:00 +20°C° 0.1 mm 0 m/s 656 mmHg 75%
    10:00 +21°C° 0.2 mm 0 m/s 656 mmHg 72%
    11:00 +24°C° 0.2 mm 1 m/s 655 mmHg 69%
    12:00 +25°C° 0.2 mm 1 m/s 655 mmHg 66%
    13:00 +25°C° 0.7 mm 1 m/s 655 mmHg 70%
    14:00 +24°C° 0.7 mm 1 m/s 654 mmHg 74%
    15:00 +24°C° 0.7 mm 1 m/s 653 mmHg 78%
    16:00 +23°C° 1.2 mm 1 m/s 653 mmHg 83%
    17:00 +19°C° 1.2 mm 0 m/s 653 mmHg 88%
    18:00 +18°C° 1.2 mm 0 m/s 652 mmHg 94%
    19:00 +17°C° 0.5 mm 0 m/s 653 mmHg 94%
    20:00 +17°C° 0.5 mm 0 m/s 654 mmHg 95%
    21:00 +17°C° 0.5 mm 0 m/s 654 mmHg 96%
    22:00 +17°C° 0.2 mm 0 m/s 654 mmHg 96%
    23:00 +16°C° 0.2 mm 0 m/s 654 mmHg 96%

    27 Setembro, Quinta-feira

    Tempo Temperatura Precipitação Vento Pressão Humidade
    00:00 +16°C° 0.2 mm 0 m/s 654 mmHg 97%
    01:00 +16°C° 0.3 mm 0 m/s 653 mmHg 97%
    02:00 +16°C° 0.3 mm 0 m/s 653 mmHg 97%
    03:00 +16°C° 0.3 mm 0 m/s 652 mmHg 97%
    04:00 +16°C° 0.5 mm 0 m/s 653 mmHg 97%
    05:00 +16°C° 0.5 mm 0 m/s 653 mmHg 97%
    06:00 +16°C° 0.5 mm 0 m/s 653 mmHg 97%
    07:00 +17°C° 0.3 mm 0 m/s 653 mmHg 94%
    08:00 +18°C° 0.3 mm 0 m/s 654 mmHg 90%
    09:00 +21°C° 0.3 mm 1 m/s 655 mmHg 87%
    10:00 +22°C° 0.3 mm 1 m/s 655 mmHg 81%
    11:00 +23°C° 0.3 mm 1 m/s 655 mmHg 76%
    12:00 +25°C° 0.3 mm 1 m/s 655 mmHg 71%
    13:00 +25°C° 0.6 mm 1 m/s 654 mmHg 73%
    14:00 +24°C° 0.6 mm 1 m/s 654 mmHg 74%
    15:00 +24°C° 0.6 mm 1 m/s 653 mmHg 76%
    16:00 +23°C° 0.5 mm 1 m/s 653 mmHg 82%
    17:00 +21°C° 0.5 mm 1 m/s 653 mmHg 87%
    18:00 +20°C° 0.5 mm 1 m/s 653 mmHg 92%
    19:00 +17°C° 0.3 mm 0 m/s 653 mmHg 94%
    20:00 +17°C° 0.3 mm 0 m/s 654 mmHg 95%
    21:00 +17°C° 0.3 mm 0 m/s 654 mmHg 96%
    22:00 +16°C° 0.1 mm 0 m/s 654 mmHg 96%
    23:00 +16°C° 0.1 mm 0 m/s 654 mmHg 96%

    28 Setembro, Sexta-feira

    Tempo Temperatura Precipitação Vento Pressão Humidade
    00:00 +16°C° 0.1 mm 0 m/s 654 mmHg 97%
    01:00 +16°C° 0 mm 0 m/s 653 mmHg 97%
    02:00 +15°C° 0 mm 0 m/s 653 mmHg 97%
    03:00 +15°C° 0 mm 0 m/s 653 mmHg 97%
    04:00 +15°C° 0 mm 0 m/s 653 mmHg 97%
    05:00 +15°C° 0 mm 0 m/s 653 mmHg 97%
    06:00 +15°C° 0 mm 0 m/s 654 mmHg 97%
    07:00 +17°C° 0 mm 0 m/s 655 mmHg 91%
    08:00 +18°C° 0 mm 0 m/s 655 mmHg 85%
    09:00 +22°C° 0 mm 1 m/s 656 mmHg 80%
    10:00 +23°C° 0.1 mm 1 m/s 656 mmHg 74%
    11:00 +25°C° 0.1 mm 1 m/s 656 mmHg 68%
    12:00 +26°C° 0.1 mm 1 m/s 656 mmHg 62%
    13:00 +26°C° 0.2 mm 1 m/s 655 mmHg 61%
    14:00 +26°C° 0.2 mm 1 m/s 654 mmHg 60%
    15:00 +26°C° 0.2 mm 1 m/s 654 mmHg 59%
    16:00 +24°C° 0.4 mm 1 m/s 654 mmHg 70%
    17:00 +22°C° 0.4 mm 1 m/s 654 mmHg 80%
    18:00 +20°C° 0.4 mm 1 m/s 653 mmHg 90%
    19:00 +19°C° 0.4 mm 1 m/s 654 mmHg 92%
    20:00 +17°C° 0.4 mm 0 m/s 654 mmHg 94%
    21:00 +16°C° 0.4 mm 0 m/s 655 mmHg 96%
    22:00 +16°C° 0.2 mm 0 m/s 655 mmHg 97%
    23:00 +16°C° 0.2 mm 0 m/s 654 mmHg 97%

    29 Setembro, Sábado

    Tempo Temperatura Precipitação Vento Pressão Humidade
    00:00 +15°C° 0.2 mm 0 m/s 654 mmHg 97%
    01:00 +15°C° 0 mm 0 m/s 654 mmHg 97%
    02:00 +15°C° 0 mm 0 m/s 653 mmHg 97%
    03:00 +15°C° 0 mm 0 m/s 653 mmHg 96%
    04:00 +15°C° 0 mm 0 m/s 653 mmHg 96%
    05:00 +15°C° 0 mm 0 m/s 654 mmHg 96%
    06:00 +15°C° 0 mm 0 m/s 654 mmHg 96%
    07:00 +17°C° 0 mm 0 m/s 655 mmHg 87%
    08:00 +21°C° 0 mm 1 m/s 656 mmHg 77%
    09:00 +24°C° 0 mm 1 m/s 657 mmHg 68%
    10:00 +25°C° 0.1 mm 1 m/s 656 mmHg 65%
    11:00 +25°C° 0.1 mm 1 m/s 656 mmHg 62%
    12:00 +26°C° 0.1 mm 1 m/s 656 mmHg 60%
    13:00 +26°C° 0.3 mm 1 m/s 655 mmHg 62%
    14:00 +26°C° 0.3 mm 1 m/s 654 mmHg 65%
    15:00 +25°C° 0.3 mm 1 m/s 654 mmHg 67%
    16:00 +24°C° 0.8 mm 1 m/s 654 mmHg 76%
    17:00 +22°C° 0.8 mm 1 m/s 654 mmHg 85%
    18:00 +20°C° 0.8 mm 1 m/s 653 mmHg 93%
    19:00 +17°C° 0.4 mm 0 m/s 654 mmHg 95%
    20:00 +17°C° 0.4 mm 0 m/s 654 mmHg 96%
    21:00 +16°C° 0.4 mm 0 m/s 655 mmHg 97%
    22:00 +16°C° 0.3 mm 0 m/s 654 mmHg 97%
    23:00 +16°C° 0.3 mm 0 m/s 654 mmHg 97%
    Mostrar mais